Location: Bakov nad Jizerou
(50.4784°N, 14.9394°E)
Time: 04:07:00
(UTC+00:00)

FALCON 9 DEB - Visible Passes

Search period start: 17 October 2021 00:00
Search period end: 27 October 2021 00:00
Orbit: 419 x 429 km, 53.0° (Epoch: 16 October)

Date Brightness Start Highest point End Pass type
(mag) Time Alt. Az. Time Alt. Az. Time Alt. Az.
17 Oct 4.6 03:47:57 22° SSW 03:47:57 22° SSW 03:50:12 10° SSE visible
18 Oct 5.8 03:04:32 12° SSE 03:04:32 12° SSE 03:04:51 10° SSE visible
25 Oct 5.4 17:38:58 10° S 17:39:54 14° S 17:39:54 14° S visible
26 Oct 5.2 16:54:10 10° SSE 16:55:40 12° SE 16:56:10 12° SE visible
26 Oct 5.8 18:28:30 10° SW 18:29:15 15° SW 18:29:15 15° SW visible
